Location: Anglesey
(53.1800°N, 4.2200°W)
Time: 16:07:53
(UTC+01:00)

ISS - Pass Details

Date: 11 October 2017
Orbit: 400 x 408 km, 51.6° (Epoch: 24 October)

Event Time Altitude Azimuth Distance (km) Brightness Sun altitude
Rises 19:10:46 0° 278° (W) 2,326 2.2 -6.9°
Reaches altitude 10° 19:12:54 10° 272° (W) 1,466 0.8 -7.2°
Maximum altitude 19:16:02 43° 199° (SSW) 579 -2.9 -7.7°
Drops below altitude 10° 19:19:11 10° 126° (SE) 1,466 -1.5 -8.2°
Enters shadow 19:19:43 - 124° (ESE) 1,675 -1.2 -8.3°
